This is the latest recevied weather packets stored in our database for station/object WX4SGA. If no packets are shown the sender has not sent any weather packets the latest 10 day(s).
| Time | Temp. | Humidity | Pressure | Rain* | Wind** | Luminosity | Snow |
|---|---|---|---|---|---|---|---|
| 1788203193 | 32.22° C | 66% | 1018.3 hPa | 0 mm | - | 758 W/m² | - |
| 1788202892 | 32.22° C | 66% | 1018.3 hPa | 0 mm | - | 693 W/m² | - |
| 1788202588 | 32.22° C | 64% | 1018.3 hPa | 0 mm | - | 686 W/m² | - |
| 1788202284 | 31.67° C | 66% | 1018.6 hPa | 0 mm | - | 743 W/m² | - |
| 1788201984 | 31.67° C | 66% | 1018.6 hPa | 0 mm | - | 793 W/m² | - |
| 1788201680 | 31.67° C | 67% | 1018.6 hPa | 0 mm | - | 732 W/m² | - |
| 1788201379 | 31.67° C | 66% | 1018.6 hPa | 0 mm | - | 561 W/m² | - |
| 1788201078 | 32.22° C | 65% | 1018.6 hPa | 0 mm | - | 241 W/m² | - |
| 1788200778 | 32.78° C | 66% | 1018.6 hPa | 0 mm | - | 847 W/m² | - |
| 1788200474 | 31.67° C | 69% | 1019 hPa | 0 mm | - | 814 W/m² | - |
| 1788200168 | 31.67° C | 68% | 1019 hPa | 0 mm | - | 834 W/m² | - |
| 1788199868 | 31.11° C | 70% | 1019 hPa | 0 mm | - | 869 W/m² | - |
| 1788199574 | 31.67° C | 71% | 1019 hPa | 0 mm | - | 285 W/m² | - |
| 1788199252 | 31.67° C | 65% | 1019 hPa | 0 mm | - | 942 W/m² | - |
| 1788198942 | 31.67° C | 69% | 1019 hPa | 0 mm | - | 951 W/m² | - |
| 1788198638 | 31.11° C | 68% | 1019.3 hPa | 0 mm | - | 905 W/m² | - |
| 1788198332 | 31.11° C | 68% | 1019 hPa | 0 mm | - | 897 W/m² | - |
| 1788198027 | 31.11° C | 69% | 1019 hPa | 0 mm | - | 854 W/m² | - |
| 1788197725 | 31.11° C | 69% | 1019.3 hPa | 0 mm | - | 859 W/m² | - |
| 1788197422 | 31.67° C | 69% | 1019.3 hPa | 0 mm | - | 872 W/m² | - |
| 1788197116 | 31.11° C | 68% | 1019.3 hPa | 0 mm | - | 865 W/m² | - |
| 1788196811 | 30.56° C | 70% | 1019.3 hPa | 0 mm | - | 868 W/m² | - |
| 1788196507 | 30.56° C | 71% | 1019.6 hPa | 0 mm | - | 663 W/m² | - |
| 1788196204 | 30° C | 71% | 1019.6 hPa | 0 mm | - | 835 W/m² | - |
| 1788195899 | 30° C | 77% | 1019.6 hPa | 0 mm | - | 864 W/m² | - |
* Rain latest hour (hover to see other rain measurements)
** Current wind speed in m/s (hover to see current wind gust speed)